GWMRN LXGB-EGMC

Flight info

Callsign GWMRN
Flight time N/A
Altitude 28000
Route BRIKE DCT HIJ Z230 TLD N858 SIE N865 BUGIX DCT NENEM DCT YURZI UL14 TEPRA UN867 RINSO UM184 DIKRO UZ273 ANGLO/N0313F290 UZ273 NEVIL
Aircraft TBM9/L-SDFGRWY/S

Departure

Time N/A
Airport Gibraltar Airport (LXGB)

Arrival

Time 2026-05-09 08:47
Airport London Southend Airport (EGMC)
Time Latitude Longitude Altitude Speed Heading
2026-05-09 07:16 45.55545 -2.67793 28098 ft 309 kts
2026-05-09 07:17 45.59742 -2.66438 28097 ft 309 kts
2026-05-09 07:17 45.63948 -2.65077 28098 ft 309 kts
2026-05-09 07:18 45.68139 -2.63720 28098 ft 309 kts
2026-05-09 07:18 45.72340 -2.62358 28098 ft 309 kts
2026-05-09 07:19 45.76534 -2.60996 28098 ft 309 kts
2026-05-09 07:19 45.80723 -2.59633 28098 ft 309 kts
2026-05-09 07:20 45.84935 -2.58260 28098 ft 309 kts
2026-05-09 07:20 45.89140 -2.56888 28098 ft 309 kts
2026-05-09 07:21 45.93340 -2.55516 28098 ft 309 kts
2026-05-09 07:21 45.97559 -2.54135 28099 ft 309 kts
2026-05-09 07:22 46.01772 -2.52753 28099 ft 309 kts
2026-05-09 07:22 46.05973 -2.51374 28099 ft 309 kts
2026-05-09 07:23 46.10182 -2.49989 28099 ft 309 kts
2026-05-09 07:23 46.14346 -2.48618 28099 ft 309 kts
2026-05-09 07:24 46.18544 -2.47434 28100 ft 303 kts 356°
2026-05-09 07:24 46.22732 -2.46759 28099 ft 303 kts 355°
2026-05-09 07:25 46.26935 -2.46087 28099 ft 303 kts 355°
2026-05-09 07:25 46.31144 -2.45412 28099 ft 303 kts 355°
2026-05-09 07:26 46.35322 -2.44741 28099 ft 303 kts 355°
2026-05-09 07:26 46.39510 -2.44068 28100 ft 303 kts 355°
2026-05-09 07:27 46.43696 -2.43394 28100 ft 303 kts 355°
2026-05-09 07:27 46.47871 -2.42722 28099 ft 303 kts 355°
2026-05-09 07:28 46.49969 -2.42036 28085 ft 316 kts
2026-05-09 07:28 46.51962 -2.40609 28097 ft 326 kts 21°
2026-05-09 07:28 46.55831 -2.37311 28100 ft 325 kts 20°
2026-05-09 07:29 46.59723 -2.34078 28092 ft 325 kts 21°
2026-05-09 07:29 46.63529 -2.30925 28091 ft 325 kts 20°
2026-05-09 07:30 46.67321 -2.27781 28091 ft 324 kts 20°
2026-05-09 07:30 46.71139 -2.24611 28091 ft 324 kts 21°
2026-05-09 07:31 46.74972 -2.21421 28092 ft 324 kts 20°
2026-05-09 07:31 46.78751 -2.18273 28092 ft 324 kts 20°
2026-05-09 07:32 46.82558 -2.15095 28092 ft 324 kts 20°
2026-05-09 07:32 46.86406 -2.11878 28092 ft 324 kts 20°
2026-05-09 07:33 46.92247 -2.07323 28094 ft 321 kts 15°
2026-05-09 07:34 46.96226 -2.04534 28093 ft 323 kts 15°
2026-05-09 07:34 47.00212 -2.01774 28090 ft 322 kts 10°
2026-05-09 07:34 47.02287 -2.00979 28098 ft 310 kts 357°
2026-05-09 07:35 47.04368 -2.00463 28098 ft 311 kts 356°
2026-05-09 07:35 47.08589 -1.99434 28098 ft 314 kts 356°
2026-05-09 07:36 47.12790 -1.98395 28094 ft 315 kts 356°
2026-05-09 07:36 47.16942 -1.97364 28094 ft 316 kts 356°
2026-05-09 07:37 47.21146 -1.96318 28094 ft 317 kts 356°
2026-05-09 07:37 47.25396 -1.95260 28094 ft 317 kts 356°
2026-05-09 07:38 47.29626 -1.94204 28094 ft 317 kts 356°
2026-05-09 07:38 47.33877 -1.93137 28093 ft 319 kts 358°
2026-05-09 07:38 47.36010 -1.92120 28082 ft 335 kts 12°
2026-05-09 07:39 47.38072 -1.90642 28099 ft 337 kts 15°
2026-05-09 07:39 47.42325 -1.87557 28096 ft 337 kts 15°
2026-05-09 07:40 47.46490 -1.84559 28095 ft 337 kts 14°
2026-05-09 07:40 47.50607 -1.81591 28097 ft 337 kts 14°
2026-05-09 07:41 47.54713 -1.78628 28098 ft 337 kts 15°
2026-05-09 07:41 47.58805 -1.75669 28103 ft 337 kts 14°
2026-05-09 07:42 47.62894 -1.72706 28111 ft 337 kts 14°
2026-05-09 07:42 47.67017 -1.69716 28119 ft 337 kts 14°
2026-05-09 07:43 47.71084 -1.66759 28126 ft 337 kts 14°
2026-05-09 07:43 47.75174 -1.63781 28126 ft 338 kts 15°
2026-05-09 07:44 47.79254 -1.60804 28127 ft 338 kts 15°
2026-05-09 07:44 47.83326 -1.57829 28128 ft 338 kts 14°
2026-05-09 07:45 47.87415 -1.54836 28128 ft 338 kts 15°
2026-05-09 07:45 47.91486 -1.51850 28128 ft 338 kts 15°
2026-05-09 07:46 47.95604 -1.48825 28129 ft 338 kts 15°
2026-05-09 07:46 47.99726 -1.45792 28130 ft 339 kts 15°
2026-05-09 07:47 48.03944 -1.43509 28130 ft 316 kts 354°
2026-05-09 07:47 48.06015 -1.43451 28132 ft 299 kts 340°
2026-05-09 07:47 48.08043 -1.43797 28135 ft 299 kts 340°
2026-05-09 07:48 48.12163 -1.44234 28127 ft 303 kts 343°
2026-05-09 07:48 48.16285 -1.44550 28127 ft 303 kts 343°
2026-05-09 07:49 48.20450 -1.44853 28126 ft 303 kts 343°
2026-05-09 07:49 48.24621 -1.45153 28127 ft 303 kts 343°
2026-05-09 07:50 48.28801 -1.45454 28126 ft 303 kts 343°
2026-05-09 07:50 48.32983 -1.45756 28127 ft 303 kts 343°
2026-05-09 07:51 48.37143 -1.46057 28127 ft 303 kts 343°
2026-05-09 07:51 48.41338 -1.46361 28127 ft 303 kts 343°
2026-05-09 07:52 48.45524 -1.46664 28127 ft 303 kts 343°
2026-05-09 07:52 48.49674 -1.46966 28128 ft 303 kts 343°
2026-05-09 07:53 48.53854 -1.47270 28128 ft 303 kts 343°
2026-05-09 07:53 48.58027 -1.47574 28130 ft 303 kts 343°
2026-05-09 07:54 48.62234 -1.47881 28132 ft 303 kts 343°
2026-05-09 07:54 48.66431 -1.48188 28134 ft 303 kts 343°
2026-05-09 07:55 48.70570 -1.48491 28140 ft 303 kts 343°
2026-05-09 07:55 48.74773 -1.48799 28146 ft 303 kts 343°
2026-05-09 07:56 48.78937 -1.49105 28152 ft 303 kts 343°
2026-05-09 07:56 48.83151 -1.49415 28157 ft 303 kts 343°
2026-05-09 07:57 48.87335 -1.49724 28163 ft 303 kts 343°
2026-05-09 07:57 48.91637 -1.49113 28160 ft 329 kts
2026-05-09 07:58 48.95915 -1.46611 28178 ft 332 kts
2026-05-09 07:58 49.00254 -1.44145 28182 ft 332 kts
2026-05-09 07:59 49.04577 -1.41714 28185 ft 334 kts
2026-05-09 07:59 49.08210 -1.39671 28186 ft 336 kts
2026-05-09 08:00 49.13329 -1.36789 28183 ft 339 kts
2026-05-09 08:00 49.17724 -1.34315 28171 ft 341 kts
2026-05-09 08:01 49.22183 -1.31791 28168 ft 341 kts
2026-05-09 08:01 49.26634 -1.29269 28169 ft 341 kts
2026-05-09 08:02 49.31095 -1.26736 28170 ft 341 kts
2026-05-09 08:02 49.35547 -1.24203 28170 ft 342 kts
2026-05-09 08:03 49.40011 -1.21659 28171 ft 342 kts
2026-05-09 08:03 49.44478 -1.19108 28172 ft 342 kts
2026-05-09 08:04 49.48220 -1.16968 28172 ft 342 kts
2026-05-09 08:04 49.52676 -1.14414 28173 ft 342 kts
2026-05-09 08:05 49.57863 -1.11214 28158 ft 354 kts 17°
2026-05-09 08:05 49.61691 -1.06016 28167 ft 379 kts 46°
2026-05-09 08:06 49.64212 -1.00405 28180 ft 378 kts 46°
2026-05-09 08:06 49.68021 -0.93025 28177 ft 375 kts 44°
2026-05-09 08:07 49.70762 -0.87813 28177 ft 374 kts 44°
2026-05-09 08:07 49.74067 -0.81521 28178 ft 374 kts 44°
2026-05-09 08:07 49.76297 -0.77272 27729 ft 388 kts 44°
2026-05-09 08:08 49.77434 -0.75103 27468 ft 393 kts 44°
2026-05-09 08:08 49.79159 -0.71805 27058 ft 400 kts 44°
2026-05-09 08:08 49.80942 -0.68390 26621 ft 405 kts 45°
2026-05-09 08:08 49.82708 -0.65004 26181 ft 408 kts 45°
2026-05-09 08:09 49.84493 -0.61577 25730 ft 410 kts 45°
2026-05-09 08:09 49.86296 -0.58111 25273 ft 410 kts 45°
2026-05-09 08:09 49.88099 -0.54639 24813 ft 409 kts 45°
2026-05-09 08:09 49.89868 -0.51230 24361 ft 408 kts 45°
2026-05-09 08:10 49.92237 -0.46656 23755 ft 405 kts 45°
2026-05-09 08:10 49.93510 -0.44519 23435 ft 397 kts 34°
2026-05-09 08:10 49.95662 -0.41964 23012 ft 390 kts 28°
2026-05-09 08:10 49.97844 -0.39404 22570 ft 387 kts 30°
2026-05-09 08:11 49.99977 -0.36845 22214 ft 381 kts 30°
2026-05-09 08:11 50.02025 -0.34364 22192 ft 368 kts 31°
2026-05-09 08:11 50.04016 -0.31944 22181 ft 358 kts 31°
2026-05-09 08:11 50.05961 -0.29576 22180 ft 350 kts 31°
2026-05-09 08:12 50.09731 -0.24982 22178 ft 342 kts 30°
2026-05-09 08:12 50.11596 -0.22707 22177 ft 339 kts 30°
2026-05-09 08:12 50.13457 -0.20435 22184 ft 337 kts 30°
2026-05-09 08:13 50.15259 -0.18044 21912 ft 352 kts 42°
2026-05-09 08:13 50.16613 -0.14782 21563 ft 364 kts 56°
2026-05-09 08:13 50.17911 -0.11337 21186 ft 369 kts 55°
2026-05-09 08:13 50.19235 -0.07931 20794 ft 372 kts 54°
2026-05-09 08:14 50.20611 -0.04440 20383 ft 374 kts 54°
2026-05-09 08:14 50.21970 -0.01004 19974 ft 373 kts 54°
2026-05-09 08:14 50.23347 0.02475 19557 ft 371 kts 54°
2026-05-09 08:14 50.24694 0.05886 19147 ft 370 kts 54°
2026-05-09 08:15 50.26040 0.09303 18737 ft 368 kts 55°
2026-05-09 08:15 50.27370 0.12685 18332 ft 366 kts 55°
2026-05-09 08:15 50.28703 0.16083 17925 ft 364 kts 55°
2026-05-09 08:15 50.30034 0.19479 17518 ft 362 kts 55°
2026-05-09 08:16 50.31340 0.22816 17118 ft 360 kts 55°
2026-05-09 08:16 50.32657 0.26187 16714 ft 357 kts 55°
2026-05-09 08:16 50.33935 0.29461 16322 ft 354 kts 55°
2026-05-09 08:16 50.35216 0.32746 15929 ft 351 kts 55°
2026-05-09 08:17 50.36486 0.36007 15539 ft 348 kts 55°
2026-05-09 08:17 50.37744 0.39243 15152 ft 345 kts 55°
2026-05-09 08:17 50.39004 0.42485 14765 ft 342 kts 55°
2026-05-09 08:17 50.40231 0.45647 14389 ft 340 kts 56°
2026-05-09 08:18 50.41465 0.48796 14256 ft 330 kts 54°
2026-05-09 08:18 50.42693 0.51736 14256 ft 320 kts 53°
2026-05-09 08:18 50.43907 0.54637 14255 ft 314 kts 53°
2026-05-09 08:18 50.45094 0.57488 14256 ft 310 kts 53°
2026-05-09 08:19 50.46278 0.60350 14257 ft 307 kts 53°
2026-05-09 08:19 50.47416 0.63110 14258 ft 306 kts 53°
2026-05-09 08:19 50.48562 0.65894 14256 ft 304 kts 54°
2026-05-09 08:19 50.49726 0.68726 14253 ft 304 kts 54°
2026-05-09 08:20 50.50856 0.71480 14254 ft 303 kts 54°
2026-05-09 08:20 50.52005 0.74284 14254 ft 302 kts 54°
2026-05-09 08:20 50.53151 0.77081 14254 ft 302 kts 54°
2026-05-09 08:20 50.54285 0.79853 14255 ft 302 kts 54°
2026-05-09 08:21 50.55432 0.82659 14255 ft 302 kts 54°
2026-05-09 08:21 50.56556 0.85412 14255 ft 302 kts 54°
2026-05-09 08:21 50.57702 0.88222 14255 ft 302 kts 54°
2026-05-09 08:21 50.58828 0.90985 14256 ft 302 kts 54°
2026-05-09 08:22 50.60102 0.93610 14235 ft 296 kts 36°
2026-05-09 08:22 50.61784 0.95435 14265 ft 291 kts 27°
2026-05-09 08:22 50.63470 0.97183 14257 ft 292 kts 28°
2026-05-09 08:22 50.65189 0.99015 14256 ft 293 kts 28°
2026-05-09 08:23 50.66859 1.00820 14255 ft 293 kts 28°
2026-05-09 08:23 50.68529 1.02635 14254 ft 293 kts 28°
2026-05-09 08:23 50.70250 1.04509 13967 ft 302 kts 28°
2026-05-09 08:23 50.72009 1.06431 13637 ft 308 kts 29°
2026-05-09 08:24 50.73759 1.08357 13302 ft 312 kts 29°
2026-05-09 08:24 50.75554 1.10341 12954 ft 312 kts 29°
2026-05-09 08:24 50.77339 1.12315 12605 ft 312 kts 29°
2026-05-09 08:24 50.79130 1.14297 12255 ft 312 kts 29°
2026-05-09 08:25 50.80907 1.16264 11908 ft 310 kts 29°
2026-05-09 08:25 50.82652 1.18203 11566 ft 308 kts 29°
2026-05-09 08:25 50.84410 1.20160 11220 ft 305 kts 29°
2026-05-09 08:25 50.86128 1.22067 10883 ft 299 kts 28°
2026-05-09 08:26 50.87822 1.23939 10550 ft 295 kts 28°
2026-05-09 08:26 50.89500 1.25791 10222 ft 291 kts 28°
2026-05-09 08:26 50.91165 1.27628 9897 ft 288 kts 28°
2026-05-09 08:26 50.92797 1.29435 9579 ft 286 kts 29°
2026-05-09 08:27 50.94422 1.31237 9290 ft 283 kts 29°
2026-05-09 08:27 50.96022 1.32986 9245 ft 272 kts 26°
2026-05-09 08:27 50.97715 1.33993 9240 ft 256 kts
2026-05-09 08:27 50.99470 1.34470 9249 ft 252 kts
2026-05-09 08:28 51.01179 1.34990 9250 ft 250 kts
2026-05-09 08:28 51.02898 1.35549 9252 ft 250 kts
2026-05-09 08:28 51.04578 1.36113 9255 ft 250 kts
2026-05-09 08:28 51.06303 1.36706 9257 ft 251 kts
2026-05-09 08:29 51.08009 1.37298 9257 ft 251 kts
2026-05-09 08:29 51.09707 1.37889 9257 ft 251 kts
2026-05-09 08:29 51.11409 1.38483 9258 ft 251 kts
2026-05-09 08:29 51.13106 1.39077 9258 ft 252 kts
2026-05-09 08:30 51.14815 1.39675 9258 ft 252 kts
2026-05-09 08:30 51.16541 1.40280 9258 ft 252 kts
2026-05-09 08:30 51.18251 1.40879 9258 ft 252 kts
2026-05-09 08:30 51.19954 1.41477 9258 ft 252 kts
2026-05-09 08:31 51.21662 1.42077 9258 ft 252 kts
2026-05-09 08:31 51.23373 1.42678 9258 ft 252 kts
2026-05-09 08:31 51.25076 1.43277 9258 ft 252 kts
2026-05-09 08:31 51.26794 1.43881 9258 ft 252 kts
2026-05-09 08:32 51.28500 1.44483 9258 ft 252 kts
2026-05-09 08:32 51.30223 1.45091 9257 ft 252 kts
2026-05-09 08:32 51.33723 1.46342 8826 ft 265 kts
2026-05-09 08:33 51.35543 1.47015 8528 ft 268 kts
2026-05-09 08:33 51.37320 1.47676 8235 ft 259 kts
2026-05-09 08:33 51.39048 1.48290 7947 ft 250 kts
2026-05-09 08:33 51.40738 1.48878 7668 ft 245 kts
2026-05-09 08:34 51.42387 1.49453 7398 ft 241 kts
2026-05-09 08:34 51.44006 1.50019 7250 ft 239 kts
2026-05-09 08:34 51.45637 1.50501 7246 ft 237 kts 359°
2026-05-09 08:34 51.47249 1.50141 7254 ft 233 kts 345°
2026-05-09 08:35 51.48835 1.49645 7252 ft 234 kts 347°
2026-05-09 08:35 51.50443 1.49178 7175 ft 236 kts 347°
2026-05-09 08:35 51.52090 1.48690 6843 ft 251 kts 347°
2026-05-09 08:35 51.53868 1.48194 6512 ft 265 kts 349°
2026-05-09 08:36 51.55746 1.47688 6190 ft 273 kts 350°
2026-05-09 08:36 51.57628 1.47205 6017 ft 272 kts 350°
2026-05-09 08:36 51.59472 1.46695 6015 ft 266 kts 350°
2026-05-09 08:36 51.61277 1.46184 6016 ft 262 kts 351°
2026-05-09 08:37 51.63059 1.45688 6020 ft 260 kts 350°
2026-05-09 08:37 51.64858 1.45191 6025 ft 259 kts 350°
2026-05-09 08:37 51.66615 1.44662 6027 ft 256 kts 345°
2026-05-09 08:37 51.68145 1.43252 5887 ft 256 kts 314°
2026-05-09 08:38 51.69034 1.40812 5556 ft 254 kts 284°
2026-05-09 08:38 51.69098 1.38026 5236 ft 253 kts 258°
2026-05-09 08:38 51.69019 1.35169 4888 ft 256 kts 277°
2026-05-09 08:38 51.69398 1.32413 4567 ft 250 kts 276°
2026-05-09 08:39 51.69653 1.29635 4246 ft 254 kts 277°
2026-05-09 08:39 51.69934 1.26845 4043 ft 252 kts 277°
2026-05-09 08:39 51.70204 1.24086 4033 ft 244 kts 277°
2026-05-09 08:39 51.70463 1.21406 4032 ft 238 kts 277°
2026-05-09 08:40 51.70718 1.18782 4032 ft 234 kts 277°
2026-05-09 08:40 51.70968 1.16219 4031 ft 232 kts 277°
2026-05-09 08:40 51.71222 1.13639 4029 ft 229 kts 277°
2026-05-09 08:40 51.71468 1.11127 4028 ft 228 kts 277°
2026-05-09 08:41 51.71714 1.08614 4026 ft 227 kts 277°
2026-05-09 08:41 51.71966 1.06099 3889 ft 227 kts 283°
2026-05-09 08:41 51.72285 1.03595 3634 ft 228 kts 286°
2026-05-09 08:41 51.72403 1.00993 3184 ft 240 kts 270°
2026-05-09 08:42 51.72173 0.98352 2945 ft 235 kts 258°
2026-05-09 08:42 51.71543 0.95964 2660 ft 236 kts 238°
2026-05-09 08:42 51.70508 0.93913 2471 ft 230 kts 227°
2026-05-09 08:42 51.69304 0.92294 2261 ft 227 kts 213°
2026-05-09 08:43 51.67958 0.90991 2054 ft 220 kts 209°
2026-05-09 08:43 51.66661 0.89782 1964 ft 209 kts 216°
2026-05-09 08:43 51.65690 0.88167 1961 ft 199 kts 231°
2026-05-09 08:43 51.64799 0.86534 1978 ft 189 kts 229°
2026-05-09 08:44 51.63958 0.84977 2021 ft 181 kts 233°
2026-05-09 08:44 51.63276 0.83334 2024 ft 177 kts 238°
2026-05-09 08:44 51.62548 0.81719 1836 ft 173 kts 236°
2026-05-09 08:44 51.61917 0.80217 1537 ft 152 kts 237°
2026-05-09 08:45 51.61397 0.78982 1309 ft 128 kts 235°
2026-05-09 08:45 51.60867 0.77865 1247 ft 126 kts 233°
2026-05-09 08:45 51.60379 0.76791 1197 ft 110 kts 233°
2026-05-09 08:45 51.59930 0.75802 958 ft 106 kts 237°
2026-05-09 08:46 51.59543 0.74855 748 ft 98 kts 233°
2026-05-09 08:46 51.59140 0.73962 661 ft 98 kts 231°
2026-05-09 08:46 51.58723 0.73072 555 ft 101 kts 234°
2026-05-09 08:46 51.58313 0.72171 412 ft 98 kts 233°
2026-05-09 08:47 51.57923 0.71303 261 ft 94 kts 232°
2026-05-09 08:47 51.57556 0.70469 92 ft 88 kts 232°
2026-05-09 08:47 51.57237 0.69776 43 ft 65 kts 236°
2026-05-09 08:47 51.57015 0.69271 46 ft 44 kts 234°
2026-05-09 08:48 51.56916 0.69060 46 ft 10 kts 232°
2026-05-09 08:48 51.56869 0.69075 46 ft 7 kts 143°
2026-05-09 08:48 51.56837 0.69132 46 ft 6 kts 102°
2026-05-09 08:48 51.56852 0.69190 46 ft 5 kts 53°
2026-05-09 08:49 51.56874 0.69237 46 ft 6 kts 54°
2026-05-09 08:49 51.56897 0.69307 46 ft 6 kts 79°
2026-05-09 08:49 51.56903 0.69362 46 ft 1 kts 82°
2026-05-09 08:49 51.56898 0.69382 46 ft 2 kts 155°
2026-05-09 08:50 51.56876 0.69390 46 ft 3 kts 169°
2026-05-09 08:50 51.56845 0.69405 46 ft 5 kts 129°
2026-05-09 08:50 51.56849 0.69454 46 ft 0 kts 347°
2026-05-09 08:50 51.56854 0.69443 46 ft 0 kts 268°